User: anonymous   Login
Location: Unspecified
(0.0000°N, 0.0000°E)
Time: 06:21:35
(UTC+00:00)
Language:

CUBEBUG 2 - Orbit

View from above orbital plane
View from above orbital plane
View from above satellite
View from above satellite

Ground track
Ground track

The orbit data is extracted from the following two-line orbital elements,

1 39440U 13066AA  18116.60695971 +.00000246 +00000-0 +41346-4 0  9990
2 39440 097.6043 134.8991 0080589 004.2374 355.9501 14.75650442237116
Epoch (UTC): 26 April 2018 14:34:01
Eccentricity: 0.0080589
inclination: 97.6043°
perigee height: 586 km
apogee height: 699 km
right ascension of ascending node: 134.8991°
argument of perigee: 4.2374°
revolutions per day: 14.75650442
mean anomaly at epoch: 355.9501°
orbit number at epoch: 23711

The dashed part of the orbit path shows where the satellite is in the earth's shadow,  

DLR